Location: Aulagny
(45.1643°N, 4.3096°E)
Time: 12:52:58
(UTC+00:00)

STARLINK-60 - Pass Details

Date: 21 October 2019
Orbit: 418 x 427 km, 53.0° (Epoch: 21 November)

Event Time Altitude Azimuth Distance (km) Brightness Sun altitude
Rises 18:14:00 0° 302° (WNW) 2,390 7.9 -15.8°
Reaches altitude 10° 18:16:06 10° 302° (WNW) 1,525 6.8 -16.2°
Maximum altitude 18:19:31 88° 221° (SW) 434 3.0 -16.8°
Enters shadow 18:20:37 41° 126° (SE) 638 3.5 -17.0°
